Volver al catálogo

VULCAN CENTAUR R/B

ActivoVLEO
NORAD 58752·ROCKET BODY·🇺🇸 United States

Lanzado Jan 8, 2024 desde Cape Canaveral Space Force Station

Loading…

Próximos Pases (próximas 24 horas)

TLE

ObsoletoSource: Space-Track

Época: Jan 8, 2024, 07:34 UTC

1 58752U 24006B   24008.31572917  .00000148  00000-0  00000-0 0  9991
2 58752  30.0000  29.8668 0004000 321.7000 177.4980 15.23529836    08

Sigue VULCAN CENTAUR R/B en tiempo real con AllMySat

Download on the App Store